Погода в Пуэрто Вьехо

Коста-Рика     9°39′21″N   82°45′06″W
темп.,
°C
ветер,
м/с
пор.,
м/с
влажн.,
%
обл.,
%
осадки,
мм/ч
давл.,
гПа
погр.,
м
9 августа, вт
вт900:00+26з337910 2.2 1011207
03:00+26з3381100 0.3 1009162
06:00+26з2280100 0.6 1011181
09:00+27сз2278100 0.3 1012260
12:00+27с4477100 0.6 1011392
15:00+28ссв337170 0.1 1009491
18:00+27ссз2379100 1.8 1011121
21:00+27зсз2380100 3.2 1012124
10 августа, ср
ср1000:00+26з4483100 4.6 1011190
03:00+26зсз4580100 2.3 1010287
06:00+26з4584100 3.2 1011279
09:00+26зсз3484100 2.2 1013234
12:00+27ссз558297 3.1 1011364
15:00+27с448045 0.9 1010381
18:00+27ссз3381100 3.9 1011254
21:00+27зсз4482100 2.6 1012284
11 августа, чт
чт1100:00+26зсз4584100 4.8 1011313
03:00+26зсз5683100 3.3 1010319
06:00+26зсз6686100 5.0 1011393
09:00+26сз6784100 1.8 1013477
12:00+27ссз8882100 2.1 1011528
15:00+27ссз7883100 7.5 1010453
18:00+26ссз6783100 16.1 1011382
21:00+26зсз4584100 6.4 1013302
12 августа, пт
пт1200:00+24зюз4491100 11.1 1013265
03:00+24зюз4586100 1.6 1011272
06:00+26сз4580100 1.6 1012356
09:00+26зсз457798 0.4 1013353
12:00+27сз7874100 0.4 1012523
15:00+26сз11117744 0.0 1010625
18:00+26сз91082100 0.0 1012522
21:00+26сз6778100 0.3 1013404
13 августа, сб
сб1300:00+25зсз4582100 0.6 1013365
03:00+25сз4579100 0.0 1012385
06:00+25зсз457998 0.0 1012401
09:00+26сз2375100 0.0 1014361
12:00+26с4477100 0.0 1012419
15:00+27с448197 0.0 1011514
18:00+26с2282100 0.9 1012467
21:00+26зсз2284100 2.0 1013319